When you browse on this site, cookies collect data to enhance your experience and personalize the content and advertising you see.
Visit our Privacy Policy to learn more. By continuing to use the site, you agree to this use of cookies and data.
  • In Hungary
  • List of Countries
  • For 7 days
  • Water Temperature
  • Weather Map
  • News
  • Weather Widgets
  • user-avatar
    Login

    Hourly Weather Khyzhnyakivka

    Today, 7 April, Tuesday

    Time Temperature Precipitation Wind Pressure Humidity
    00:00 +5°C° 0 mm 2 mps 766 mmHg 57%
    01:00 +5°C° 0 mm 2 mps 766 mmHg 59%
    02:00 +5°C° 0 mm 2 mps 766 mmHg 61%
    03:00 +4°C° 0 mm 2 mps 766 mmHg 64%
    04:00 +4°C° 0 mm 2 mps 766 mmHg 67%
    05:00 +4°C° 0 mm 2 mps 766 mmHg 69%
    06:00 +4°C° 0 mm 3 mps 766 mmHg 68%
    07:00 +5°C° 0 mm 3 mps 766 mmHg 66%
    08:00 +6°C° 0 mm 4 mps 767 mmHg 65%
    09:00 +7°C° 0 mm 4 mps 767 mmHg 60%
    10:00 +8°C° 0 mm 4 mps 767 mmHg 54%
    11:00 +10°C° 0 mm 4 mps 767 mmHg 49%
    12:00 +10°C° 0 mm 4 mps 767 mmHg 46%
    13:00 +11°C° 0 mm 3 mps 767 mmHg 43%
    14:00 +12°C° 0 mm 3 mps 766 mmHg 40%
    15:00 +11°C° 0 mm 3 mps 766 mmHg 40%
    16:00 +11°C° 0 mm 3 mps 766 mmHg 41%
    17:00 +11°C° 0 mm 3 mps 766 mmHg 41%
    18:00 +10°C° 0 mm 3 mps 766 mmHg 46%
    19:00 +8°C° 0 mm 2 mps 766 mmHg 51%
    20:00 +7°C° 0 mm 2 mps 766 mmHg 56%
    21:00 +7°C° 0 mm 2 mps 766 mmHg 57%
    22:00 +6°C° 0 mm 2 mps 766 mmHg 57%
    23:00 +7°C° 0 mm 1 mps 766 mmHg 58%

    Tomorrow, 8 April, Wednesday

    Time Temperature Precipitation Wind Pressure Humidity
    00:00 +6°C° 0 mm 1 mps 766 mmHg 59%
    01:00 +6°C° 0 mm 1 mps 766 mmHg 60%
    02:00 +6°C° 0 mm 1 mps 766 mmHg 61%
    03:00 +4°C° 0 mm 2 mps 765 mmHg 62%
    04:00 +4°C° 0 mm 2 mps 765 mmHg 63%
    05:00 +4°C° 0 mm 2 mps 765 mmHg 64%
    06:00 +4°C° 0 mm 3 mps 764 mmHg 59%
    07:00 +7°C° 0 mm 3 mps 764 mmHg 55%
    08:00 +7°C° 0 mm 4 mps 764 mmHg 51%
    09:00 +10°C° 0 mm 4 mps 763 mmHg 48%
    10:00 +12°C° 0 mm 4 mps 762 mmHg 46%
    11:00 +13°C° 0 mm 5 mps 762 mmHg 43%
    12:00 +14°C° 0 mm 5 mps 761 mmHg 42%
    13:00 +15°C° 0 mm 5 mps 760 mmHg 40%
    14:00 +16°C° 0 mm 6 mps 759 mmHg 39%
    15:00 +16°C° 0 mm 5 mps 759 mmHg 38%
    16:00 +15°C° 0 mm 5 mps 758 mmHg 38%
    17:00 +15°C° 0 mm 5 mps 757 mmHg 38%
    18:00 +14°C° 0 mm 4 mps 757 mmHg 41%
    19:00 +13°C° 0 mm 4 mps 757 mmHg 45%
    20:00 +12°C° 0 mm 3 mps 757 mmHg 49%
    21:00 +11°C° 0 mm 3 mps 757 mmHg 56%
    22:00 +10°C° 0 mm 3 mps 757 mmHg 62%
    23:00 +9°C° 0 mm 2 mps 757 mmHg 69%

    Day after tomorrow, 9 April, Thursday

    Time Temperature Precipitation Wind Pressure Humidity
    00:00 +8°C° 0 mm 2 mps 757 mmHg 71%
    01:00 +7°C° 0 mm 2 mps 757 mmHg 72%
    02:00 +7°C° 0 mm 2 mps 757 mmHg 74%
    03:00 +6°C° 0 mm 2 mps 757 mmHg 77%
    04:00 +6°C° 0 mm 2 mps 757 mmHg 80%
    05:00 +6°C° 0 mm 2 mps 757 mmHg 83%
    06:00 +7°C° 0 mm 2 mps 757 mmHg 78%
    07:00 +9°C° 0 mm 2 mps 757 mmHg 73%
    08:00 +10°C° 0 mm 3 mps 757 mmHg 68%
    09:00 +12°C° 0 mm 2 mps 757 mmHg 62%
    10:00 +13°C° 0 mm 2 mps 757 mmHg 56%
    11:00 +14°C° 0 mm 2 mps 756 mmHg 50%
    12:00 +15°C° 0 mm 2 mps 756 mmHg 47%
    13:00 +16°C° 0 mm 1 mps 756 mmHg 43%
    14:00 +18°C° 0 mm 1 mps 755 mmHg 40%
    15:00 +18°C° 0 mm 1 mps 755 mmHg 40%
    16:00 +18°C° 0 mm 1 mps 755 mmHg 39%
    17:00 +16°C° 0 mm 1 mps 754 mmHg 39%
    18:00 +14°C° 0 mm 0 mps 754 mmHg 43%
    19:00 +13°C° 0 mm 0 mps 754 mmHg 47%
    20:00 +12°C° 0 mm 0 mps 754 mmHg 50%
    21:00 +12°C° 0 mm 1 mps 754 mmHg 53%
    22:00 +12°C° 0 mm 1 mps 754 mmHg 55%
    23:00 +10°C° 0 mm 2 mps 754 mmHg 58%

    10 April, Friday

    Time Temperature Precipitation Wind Pressure Humidity
    00:00 +10°C° 0 mm 2 mps 753 mmHg 61%
    01:00 +9°C° 0 mm 2 mps 753 mmHg 64%
    02:00 +9°C° 0 mm 2 mps 753 mmHg 67%
    03:00 +8°C° 0 mm 2 mps 753 mmHg 69%
    04:00 +8°C° 0 mm 2 mps 752 mmHg 70%
    05:00 +8°C° 0 mm 3 mps 752 mmHg 71%
    06:00 +9°C° 0 mm 3 mps 752 mmHg 65%
    07:00 +11°C° 0 mm 4 mps 752 mmHg 59%
    08:00 +13°C° 0 mm 4 mps 751 mmHg 54%
    09:00 +14°C° 0 mm 5 mps 751 mmHg 49%
    10:00 +15°C° 0 mm 5 mps 751 mmHg 44%
    11:00 +17°C° 0 mm 6 mps 750 mmHg 39%
    12:00 +17°C° 0 mm 6 mps 750 mmHg 38%
    13:00 +19°C° 0 mm 6 mps 749 mmHg 38%
    14:00 +19°C° 0 mm 6 mps 748 mmHg 37%
    15:00 +17°C° 0.1 mm 6 mps 748 mmHg 44%
    16:00 +16°C° 0.1 mm 6 mps 748 mmHg 51%
    17:00 +14°C° 0.1 mm 6 mps 748 mmHg 59%
    18:00 +13°C° 0.9 mm 5 mps 748 mmHg 65%
    19:00 +12°C° 0.9 mm 5 mps 749 mmHg 71%
    20:00 +9°C° 0.9 mm 5 mps 749 mmHg 77%
    21:00 +9°C° 0.2 mm 5 mps 749 mmHg 76%
    22:00 +8°C° 0.2 mm 5 mps 749 mmHg 74%
    23:00 +8°C° 0.2 mm 6 mps 749 mmHg 73%

    11 April, Saturday

    Time Temperature Precipitation Wind Pressure Humidity
    00:00 +7°C° 0 mm 6 mps 750 mmHg 72%
    01:00 +5°C° 0 mm 6 mps 750 mmHg 71%
    02:00 +4°C° 0 mm 6 mps 750 mmHg 69%
    03:00 +3°C° 0 mm 6 mps 750 mmHg 71%
    04:00 +3°C° 0 mm 5 mps 751 mmHg 72%
    05:00 +2°C° 0 mm 5 mps 751 mmHg 73%
    06:00 +3°C° 0 mm 6 mps 752 mmHg 69%
    07:00 +4°C° 0 mm 6 mps 752 mmHg 66%
    08:00 +5°C° 0 mm 7 mps 752 mmHg 62%
    09:00 +6°C° 0 mm 7 mps 752 mmHg 56%
    10:00 +8°C° 0 mm 7 mps 753 mmHg 50%
    11:00 +9°C° 0 mm 7 mps 753 mmHg 44%
    12:00 +10°C° 0 mm 7 mps 753 mmHg 41%
    13:00 +10°C° 0 mm 7 mps 753 mmHg 38%
    14:00 +11°C° 0 mm 7 mps 753 mmHg 35%
    15:00 +10°C° 0 mm 6 mps 753 mmHg 35%
    16:00 +10°C° 0 mm 6 mps 754 mmHg 35%
    17:00 +9°C° 0 mm 6 mps 754 mmHg 35%
    18:00 +8°C° 0 mm 5 mps 754 mmHg 40%
    19:00 +7°C° 0 mm 4 mps 755 mmHg 45%
    20:00 +7°C° 0 mm 3 mps 755 mmHg 49%
    21:00 +5°C° 0 mm 3 mps 756 mmHg 52%
    22:00 +5°C° 0 mm 3 mps 756 mmHg 55%
    23:00 +5°C° 0 mm 2 mps 757 mmHg 58%

    12 April, Sunday

    Time Temperature Precipitation Wind Pressure Humidity
    00:00 +5°C° 0 mm 2 mps 757 mmHg 59%
    01:00 +4°C° 0 mm 2 mps 757 mmHg 60%
    02:00 +4°C° 0 mm 2 mps 757 mmHg 60%
    03:00 +3°C° 0 mm 2 mps 757 mmHg 61%
    04:00 +3°C° 0 mm 2 mps 758 mmHg 61%
    05:00 +3°C° 0 mm 2 mps 758 mmHg 62%
    06:00 +4°C° 0 mm 2 mps 758 mmHg 56%
    07:00 +5°C° 0 mm 2 mps 758 mmHg 50%
    08:00 +7°C° 0 mm 2 mps 759 mmHg 45%
    09:00 +8°C° 0 mm 2 mps 759 mmHg 41%
    10:00 +10°C° 0 mm 1 mps 759 mmHg 38%
    11:00 +11°C° 0 mm 1 mps 758 mmHg 35%
    12:00 +11°C° 0 mm 1 mps 758 mmHg 34%
    13:00 +11°C° 0 mm 0 mps 758 mmHg 32%
    14:00 +11°C° 0 mm 0 mps 758 mmHg 31%
    15:00 +11°C° 0 mm 0 mps 758 mmHg 31%
    16:00 +11°C° 0 mm 0 mps 757 mmHg 31%
    17:00 +12°C° 0 mm 1 mps 757 mmHg 31%
    18:00 +11°C° 0 mm 1 mps 757 mmHg 35%
    19:00 +10°C° 0 mm 1 mps 758 mmHg 39%
    20:00 +8°C° 0 mm 2 mps 758 mmHg 43%
    21:00 +8°C° 0 mm 2 mps 758 mmHg 45%
    22:00 +7°C° 0 mm 3 mps 758 mmHg 47%
    23:00 +5°C° 0 mm 3 mps 758 mmHg 49%
    Show more